Time,TemperatureF,DewpointF,PressureIn,WindDirection,WindDirectionDegrees,WindSpeedMPH,WindSpeedGustMPH,Humidity,HourlyPrecipIn,Conditions,Clouds,dailyrainin,SoftwareType,DateUTC
2013-03-03 00:11:00,46.0,24.0,-100.00,North,-999,0.0,0.0,42,-99.99,,,0.00,,2013-03-03 07:11:00,
2013-03-03 00:21:00,46.0,24.0,-100.00,North,-999,0.0,0.0,42,-99.99,,,0.00,,2013-03-03 07:21:00,
2013-03-03 00:31:00,45.0,23.0,-100.00,North,-999,0.0,0.0,43,-99.99,,,0.00,,2013-03-03 07:31:00,
2013-03-03 00:42:00,45.0,23.0,-100.00,North,-999,0.0,0.0,43,-99.99,,,0.00,,2013-03-03 07:42:00,
2013-03-03 00:51:00,45.0,23.0,-100.00,North,-999,0.0,0.0,43,-99.99,,,0.00,,2013-03-03 07:51:00,
2013-03-03 01:00:00,41.0,23.0,-100.00,North,-999,0.0,0.0,48,-99.99,,,0.00,,2013-03-03 08:00:00,
2013-03-03 01:01:00,45.0,23.0,-100.00,North,-999,0.0,0.0,43,-99.99,,,0.00,,2013-03-03 08:01:00,
2013-03-03 01:11:00,47.0,25.0,-100.00,North,-999,0.0,0.0,43,-99.99,,,0.00,,2013-03-03 08:11:00,
2013-03-03 01:21:00,47.0,25.0,-100.00,North,-999,0.0,0.0,43,-99.99,,,0.00,,2013-03-03 08:21:00,
2013-03-03 01:31:00,41.0,23.0,-100.00,North,-999,0.0,0.0,48,-99.99,,,0.00,,2013-03-03 08:31:00,
2013-03-03 01:41:00,41.0,23.0,-100.00,North,-999,0.0,0.0,48,-99.99,,,0.00,,2013-03-03 08:41:00,
2013-03-03 01:53:00,41.0,23.0,-100.00,North,-999,0.0,0.0,48,-99.99,,,0.00,,2013-03-03 08:53:00,
2013-03-03 02:00:00,42.0,25.0,-100.00,North,-999,0.0,0.0,51,-99.99,,,0.00,,2013-03-03 09:00:00,
2013-03-03 02:11:00,42.0,25.0,-100.00,North,-999,0.0,0.0,49,-99.99,,,0.00,,2013-03-03 09:11:00,
2013-03-03 02:21:00,42.0,25.0,-100.00,North,-999,0.0,0.0,49,-99.99,,,0.00,,2013-03-03 09:21:00,
2013-03-03 02:32:00,42.0,25.0,-100.00,North,-999,0.0,0.0,51,-99.99,,,0.00,,2013-03-03 09:32:00,
2013-03-03 02:41:00,42.0,25.0,-100.00,North,-999,0.0,0.0,51,-99.99,,,0.00,,2013-03-03 09:41:00,
2013-03-03 02:51:00,42.0,25.0,-100.00,North,-999,0.0,0.0,51,-99.99,,,0.00,,2013-03-03 09:51:00,
2013-03-03 03:00:00,43.0,26.0,-100.00,North,-999,0.0,0.0,51,-99.99,,,0.00,,2013-03-03 10:00:00,
2013-03-03 03:11:00,43.0,27.0,-100.00,North,-999,0.0,0.0,51,-99.99,,,0.00,,2013-03-03 10:11:00,
2013-03-03 03:21:00,43.0,27.0,-100.00,North,-999,0.0,0.0,51,-99.99,,,0.00,,2013-03-03 10:21:00,
2013-03-03 03:32:00,43.0,26.0,-100.00,North,-999,0.0,0.0,51,-99.99,,,0.00,,2013-03-03 10:32:00,
2013-03-03 03:42:00,43.0,26.0,-100.00,North,-999,0.0,0.0,51,-99.99,,,0.00,,2013-03-03 10:42:00,
2013-03-03 03:52:00,43.0,26.0,-100.00,North,-999,0.0,0.0,51,-99.99,,,0.00,,2013-03-03 10:52:00,
2013-03-03 04:00:00,42.0,25.0,-100.00,North,-999,0.0,0.0,51,-99.99,,,0.00,,2013-03-03 11:00:00,
2013-03-03 04:11:00,41.0,25.0,-100.00,North,-999,0.0,0.0,53,-99.99,,,0.00,,2013-03-03 11:11:00,
2013-03-03 04:21:00,41.0,25.0,-100.00,North,-999,0.0,0.0,53,-99.99,,,0.00,,2013-03-03 11:21:00,
2013-03-03 04:31:00,42.0,25.0,-100.00,North,-999,0.0,0.0,51,-99.99,,,0.00,,2013-03-03 11:31:00,
2013-03-03 04:42:00,42.0,25.0,-100.00,North,-999,0.0,0.0,51,-99.99,,,0.00,,2013-03-03 11:42:00,
2013-03-03 04:52:00,42.0,25.0,-100.00,North,-999,0.0,0.0,51,-99.99,,,0.00,,2013-03-03 11:52:00,
2013-03-03 05:00:00,40.0,25.0,-100.00,North,-999,0.0,0.0,54,-99.99,,,0.00,,2013-03-03 12:00:00,
2013-03-03 05:11:00,42.0,25.0,-100.00,North,-999,0.0,0.0,51,-99.99,,,0.00,,2013-03-03 12:11:00,
2013-03-03 05:21:00,42.0,25.0,-100.00,North,-999,0.0,0.0,51,-99.99,,,0.00,,2013-03-03 12:21:00,
2013-03-03 05:32:00,40.0,25.0,-100.00,North,-999,0.0,0.0,54,-99.99,,,0.00,,2013-03-03 12:32:00,
2013-03-03 05:42:00,40.0,25.0,-100.00,North,-999,0.0,0.0,54,-99.99,,,0.00,,2013-03-03 12:42:00,
2013-03-03 05:52:00,40.0,25.0,-100.00,North,-999,0.0,0.0,54,-99.99,,,0.00,,2013-03-03 12:52:00,
2013-03-03 06:11:00,41.0,25.0,-100.00,North,-999,0.0,0.0,52,-99.99,,,0.00,,2013-03-03 13:11:00,
2013-03-03 06:21:00,41.0,25.0,-100.00,North,-999,0.0,0.0,52,-99.99,,,0.00,,2013-03-03 13:21:00,
2013-03-03 06:32:00,43.0,25.0,-100.00,North,-999,0.0,0.0,49,-99.99,,,0.00,,2013-03-03 13:32:00,
2013-03-03 06:42:00,43.0,25.0,-100.00,North,-999,0.0,0.0,49,-99.99,,,0.00,,2013-03-03 13:42:00,
2013-03-03 06:51:00,43.0,25.0,-100.00,North,-999,0.0,0.0,49,-99.99,,,0.00,,2013-03-03 13:51:00,
2013-03-03 07:00:00,43.0,25.0,-100.00,North,-999,0.0,0.0,49,-99.99,,,0.00,,2013-03-03 14:00:00,
2013-03-03 07:01:00,43.0,25.0,-100.00,North,-999,0.0,0.0,49,-99.99,,,0.00,,2013-03-03 14:01:00,
2013-03-03 07:11:00,42.0,25.0,-100.00,North,-999,0.0,0.0,51,-99.99,,,0.00,,2013-03-03 14:11:00,
2013-03-03 07:21:00,42.0,25.0,-100.00,North,-999,0.0,0.0,51,-99.99,,,0.00,,2013-03-03 14:21:00,
2013-03-03 07:31:00,43.0,25.0,-100.00,North,-999,0.0,0.0,49,-99.99,,,0.00,,2013-03-03 14:31:00,
2013-03-03 07:42:00,43.0,25.0,-100.00,North,-999,0.0,0.0,49,-99.99,,,0.00,,2013-03-03 14:42:00,
2013-03-03 07:52:00,43.0,25.0,-100.00,North,-999,0.0,0.0,49,-99.99,,,0.00,,2013-03-03 14:52:00,
2013-03-03 08:00:00,44.0,25.0,-100.00,North,-999,0.0,0.0,46,-99.99,,,0.00,,2013-03-03 15:00:00,
2013-03-03 08:11:00,43.0,25.0,-100.00,North,-999,0.0,0.0,48,-99.99,,,0.00,,2013-03-03 15:11:00,
2013-03-03 08:22:00,43.0,25.0,-100.00,North,-999,0.0,0.0,48,-99.99,,,0.00,,2013-03-03 15:22:00,
2013-03-03 08:32:00,44.0,25.0,-100.00,North,-999,0.0,0.0,46,-99.99,,,0.00,,2013-03-03 15:32:00,
2013-03-03 08:42:00,44.0,25.0,-100.00,North,-999,0.0,0.0,46,-99.99,,,0.00,,2013-03-03 15:42:00,
2013-03-03 08:51:00,44.0,25.0,-100.00,North,-999,0.0,0.0,46,-99.99,,,0.00,,2013-03-03 15:51:00,
2013-03-03 09:01:00,47.0,27.0,-100.00,North,-999,0.0,0.0,44,-99.99,,,0.00,,2013-03-03 16:01:00,
2013-03-03 09:12:00,45.0,26.0,-100.00,North,-999,0.0,0.0,47,-99.99,,,0.00,,2013-03-03 16:12:00,
2013-03-03 09:21:00,45.0,26.0,-100.00,North,-999,0.0,0.0,47,-99.99,,,0.00,,2013-03-03 16:21:00,
2013-03-03 09:31:00,47.0,27.0,-100.00,North,-999,0.0,0.0,44,-99.99,,,0.00,,2013-03-03 16:31:00,
2013-03-03 09:51:00,47.0,27.0,-100.00,North,-999,0.0,0.0,44,-99.99,,,0.00,,2013-03-03 16:51:00,
2013-03-03 10:00:00,49.0,27.0,-100.00,North,-999,0.0,0.0,43,-99.99,,,0.00,,2013-03-03 17:00:00,
2013-03-03 10:11:00,49.0,27.0,-100.00,North,-999,0.0,0.0,42,-99.99,,,0.00,,2013-03-03 17:11:00,
2013-03-03 10:32:00,49.0,27.0,-100.00,North,-999,0.0,0.0,43,-99.99,,,0.00,,2013-03-03 17:32:00,
2013-03-03 10:42:00,49.0,27.0,-100.00,North,-999,0.0,0.0,43,-99.99,,,0.00,,2013-03-03 17:42:00,
2013-03-03 10:52:00,49.0,27.0,-100.00,North,-999,0.0,0.0,43,-99.99,,,0.00,,2013-03-03 17:52:00,
2013-03-03 11:00:00,50.0,27.0,-100.00,North,-999,0.0,0.0,41,-99.99,,,0.00,,2013-03-03 18:00:00,
2013-03-03 11:11:00,49.0,27.0,-100.00,North,-999,0.0,0.0,42,-99.99,,,0.00,,2013-03-03 18:11:00,
2013-03-03 11:21:00,49.0,27.0,-100.00,North,-999,0.0,0.0,42,-99.99,,,0.00,,2013-03-03 18:21:00,
2013-03-03 11:31:00,50.0,27.0,-100.00,North,-999,0.0,0.0,41,-99.99,,,0.00,,2013-03-03 18:31:00,
2013-03-03 11:42:00,50.0,27.0,-100.00,North,-999,0.0,0.0,41,-99.99,,,0.00,,2013-03-03 18:42:00,
2013-03-03 11:52:00,50.0,27.0,-100.00,North,-999,0.0,0.0,41,-99.99,,,0.00,,2013-03-03 18:52:00,
2013-03-03 12:01:00,47.0,29.0,-100.00,North,-999,0.0,0.0,50,-99.99,,,0.00,,2013-03-03 19:01:00,
2013-03-03 12:11:00,49.0,29.0,-100.00,North,-999,0.0,0.0,47,-99.99,,,0.00,,2013-03-03 19:11:00,
2013-03-03 12:21:00,49.0,29.0,-100.00,North,-999,0.0,0.0,47,-99.99,,,0.00,,2013-03-03 19:21:00,
2013-03-03 12:31:00,47.0,29.0,-100.00,North,-999,0.0,0.0,50,-99.99,,,0.00,,2013-03-03 19:31:00,
2013-03-03 12:42:00,47.0,29.0,-100.00,North,-999,0.0,0.0,50,-99.99,,,0.00,,2013-03-03 19:42:00,
2013-03-03 12:51:00,47.0,29.0,-100.00,North,-999,0.0,0.0,50,-99.99,,,0.00,,2013-03-03 19:51:00,
2013-03-03 13:00:00,49.0,29.0,-100.00,North,-999,0.0,0.0,46,-99.99,,,0.00,,2013-03-03 20:00:00,
2013-03-03 13:11:00,48.0,29.0,-100.00,North,-999,0.0,0.0,47,-99.99,,,0.00,,2013-03-03 20:11:00,
2013-03-03 13:21:00,48.0,29.0,-100.00,North,-999,0.0,0.0,47,-99.99,,,0.00,,2013-03-03 20:21:00,
2013-03-03 13:32:00,49.0,29.0,-100.00,North,-999,0.0,0.0,46,-99.99,,,0.00,,2013-03-03 20:32:00,
2013-03-03 13:42:00,49.0,29.0,-100.00,North,-999,0.0,0.0,46,-99.99,,,0.00,,2013-03-03 20:42:00,
2013-03-03 13:52:00,49.0,29.0,-100.00,North,-999,0.0,0.0,46,-99.99,,,0.00,,2013-03-03 20:52:00,
2013-03-03 14:00:00,53.0,30.0,-100.00,North,-999,0.0,0.0,41,-99.99,,,0.00,,2013-03-03 21:00:00,
2013-03-03 14:11:00,52.0,30.0,-100.00,North,-999,0.0,0.0,43,-99.99,,,0.00,,2013-03-03 21:11:00,
2013-03-03 14:21:00,52.0,30.0,-100.00,North,-999,0.0,0.0,43,-99.99,,,0.00,,2013-03-03 21:21:00,
2013-03-03 14:30:00,52.0,29.0,-100.00,North,-999,0.0,0.0,42,-99.99,,,-99.99,,2013-03-03 21:30:00,
2013-03-03 14:32:00,53.0,30.0,-100.00,North,-999,0.0,0.0,41,-99.99,,,0.00,,2013-03-03 21:32:00,
2013-03-03 14:41:00,53.0,30.0,-100.00,North,-999,0.0,0.0,41,-99.99,,,0.00,,2013-03-03 21:41:00,
2013-03-03 14:52:00,53.0,30.0,-100.00,North,-999,0.0,0.0,41,-99.99,,,0.00,,2013-03-03 21:52:00,
2013-03-03 15:11:00,52.0,29.0,-100.00,North,-999,0.0,0.0,42,-99.99,,,-99.99,,2013-03-03 22:11:00,
2013-03-03 15:21:00,52.0,29.0,-100.00,North,-999,0.0,0.0,42,-99.99,,,-99.99,,2013-03-03 22:21:00,